Weather in Starokostyantiniv

Ukraine / Khmelnitsky District     49°45′14″N   27°12′15″E
temp.,
°C
wind,
m/s
gust,
m/s
humid.,
%
clouds,
%
prec.,
mm/h
press.,
hPa
HPBL,
m
14 april, wed
wed1400:00+10se0079100 0.0 101520
03:00+9ene2381100 0.0 1014135
06:00+9se3586100 0.3 1013220
09:00+10sse4577100 0.3 1013457
12:00+10s6876100 0.0 1013607
15:00+14s564998 0.1 10121465
18:00+14s3551100 0.0 10111563
21:00+9wnw3486100 0.8 1013143
15 april, thu
thu1500:00+8nw3594100 0.4 1013273
03:00+7nw4595100 0.5 1013282
06:00+6nw4696100 0.0 1013315
09:00+6nw5695100 0.1 1014358
12:00+8nw5586100 0.0 1014565
15:00+8nw6780100 0.1 1014699
18:00+6nw7985100 0.0 1015601
21:00+4nw71293100 0.0 1015402
16 april, fri
fri1600:00+3nw61296100 0.1 1014436
03:00+3wnw61296100 4.0 1014466
06:00+3wnw71396100 0.6 1014502
09:00+2wnw71496100 1.1 1014536
12:00+2wnw71296100 2.6 1015656
15:00+2wnw71296100 3.9 1016534
18:00+2w61397100 2.4 1016530
21:00+2w61297100 3.1 1018460
17 april, sat
sat1700:00+2w51097100 0.1 1018363
03:00+2wsw4797100 0.6 1018340
06:00+2wsw3698100 0.4 1019351
09:00+3sw2498100 0.4 1020336
12:00+4sw2496100 0.0 1021462
15:00+4sw2396100 0.1 1021463
18:00+5wsw1290100 0.0 1021424
21:00+5ne228991 0.0 102244
18 april, sun
sun1800:00+5ese2290100 0.0 102248
03:00+3e228837 0.0 102111
06:00+2e119058 0.0 102211
09:00+6ene2276100 0.0 1022249
12:00+11ene2258100 0.0 1021982
15:00+12e3353100 0.0 10201443
18:00+11e4668100 0.1 1020403
21:00+9e4984100 0.1 1021334